[Date Prev][Date Next][Thread Prev][Thread Next] - [Date Index][Thread Index][Author Index]
2 line ISS Keps 6-14
- Subject: [sarex] 2 line ISS Keps 6-14
- From: "Dave Larsen PhD" <doc@xxxxxxxxxxx>
- Date: Thu, 14 Jun 2001 04:04:12 -0700
ISS
1 25544U 98067A 01165.18622685 .00049309 00000-0 55601-3 0 829
2 25544 51.5693 103.8348 0016713 159.1405 54.8883 15.61849552146600
----
Via the sarex mailing list at AMSAT.ORG courtesy of AMSAT-NA.
To unsubscribe, send "unsubscribe sarex" to Majordomo@amsat.org
AMSAT Home